Weather History for KDUX - March, 2014

Change the Weather History Date:

Sunday, March 9, 2014

  Actual Average (KBGD) Record (KBGD)
Temperature  
Mean Temperature 44 °F 47 °F  
Max Temperature 64 °F 60 °F 84 °F (1989)
Min Temperature 25 °F 34 °F 12 °F (1998)
Degree Days  
Heating Degree Days 20 18  
Month to date heating degree days 170  
Since 1 July heating degree days 3163  
Cooling Degree Days 0 0  
Month to date cooling degree days 0  
Year to date cooling degree days 0  
Moisture  
Dew Point 18 °F    
Average Humidity 47    
Maximum Humidity 88    
Minimum Humidity 12    
Precipitation  
Precipitation 0.00 in 0.05 in 0.81 in (1974)
Month to date precipitation 0.38  
Year to date precipitation 1.59  
Snow  
Snow 0.00 in - 1.00 in (1994)
Month to date snowfall  
Since 1 July snowfall  
Snow Depth -    
Sea Level Pressure  
Sea Level Pressure 30.22 in    
Wind  
Wind Speed 7 mph (WSW)    
Max Wind Speed 16 mph    
Max Gust Speed 23 mph    
Visibility 10 miles    
Events      
T = Trace of Precipitation, MM = Missing Value Source: NWS Daily Summary

Daily Weather History Graph

Daily Weather History Graph

Search for Another Location

Airport or City:

Trip Planner

Search our weather history database for the weather conditions in past years. The results will help you decide how hot, cold, wet, or windy it might be!

Date:

Astronomy

Mar. 09, 2014 Rise Set
Actual Time 8:07 AM CDT 7:50 PM CDT
Civil Twilight 7:41 AM CDT 8:15 PM CDT
Nautical Twilight 7:12 AM CDT 8:45 PM CDT
Astronomical Twilight 6:42 AM CDT 9:15 PM CDT
Moon 1:53 PM CDT (3/9) 3:26 AM CDT (3/9)
Length of Visible Light 12h 34m
Length of Day
11h 43m
First Quarter, 61% of the Moon is Illuminated
Mar 9
First Quarter
Mar 16
Full
Mar 23
Last Quarter
Mar 30
New
Apr 7
First Quarter

Hourly Weather History & Observations

Time (CDT) Temp. Windchill Dew Point Humidity Pressure Visibility Wind Dir Wind Speed Gust Speed Precip Events Conditions
12:15 AM 27.5 °F - 22.8 °F 83% 30.34 in 10.0 mi Calm Calm - N/A   Clear
12:35 AM 28.8 °F - 23.4 °F 80% 30.33 in 10.0 mi Calm Calm - N/A   Clear
12:55 AM 28.2 °F - 23.5 °F 83% 30.33 in 10.0 mi Calm Calm - N/A   Clear
1:15 AM 27.9 °F 24.0 °F 23.5 °F 84% 30.33 in 10.0 mi WNW 3.5 mph - N/A   Clear
1:35 AM 27.7 °F - 24.3 °F 87% 30.33 in 10.0 mi Calm Calm - N/A   Clear
1:55 AM 28.0 °F - 24.1 °F 85% 30.32 in 10.0 mi Calm Calm - N/A   Clear
3:15 AM 27.9 °F 20.6 °F 23.7 °F 84% 30.32 in 10.0 mi WNW 6.9 mph - N/A   Clear
3:35 AM 27.7 °F 18.2 °F 23.4 °F 84% 30.32 in 10.0 mi WNW 10.4 mph - N/A   Clear
3:55 AM 27.1 °F 18.2 °F 22.8 °F 84% 30.32 in 10.0 mi West 9.2 mph - N/A   Clear
4:15 AM 28.4 °F - 23.9 °F 83% 30.31 in 10.0 mi Calm Calm - N/A   Clear
4:35 AM 27.3 °F - 23.2 °F 84% 30.31 in 10.0 mi Calm Calm - N/A   Clear
4:55 AM 28.0 °F - 23.4 °F 83% 30.31 in 10.0 mi Calm Calm - N/A   Clear
5:15 AM 27.5 °F - 23.0 °F 83% 30.31 in 10.0 mi Calm Calm - N/A   Clear
5:35 AM 28.0 °F 19.3 °F 23.0 °F 81% 30.31 in 10.0 mi West 9.2 mph - N/A   Clear
5:55 AM 27.5 °F - 23.0 °F 83% 30.31 in 10.0 mi Calm Calm - N/A   Clear
6:15 AM 28.0 °F 20.0 °F 23.0 °F 81% 30.31 in 10.0 mi West 8.1 mph - N/A   Clear
6:35 AM 27.5 °F - 23.0 °F 83% 30.31 in 10.0 mi Calm Calm - N/A   Clear
6:55 AM 27.7 °F 18.8 °F 23.2 °F 83% 30.31 in 10.0 mi West 9.2 mph - N/A   Clear
7:15 AM 28.0 °F 20.0 °F 23.7 °F 84% 30.31 in 10.0 mi WSW 8.1 mph - N/A   Clear
7:35 AM 27.0 °F - 23.0 °F 85% 30.31 in 10.0 mi Calm Calm - N/A   Clear
7:55 AM 27.9 °F 19.8 °F 23.9 °F 85% 30.31 in 10.0 mi WSW 8.1 mph - N/A   Clear
8:15 AM 25.7 °F 17.1 °F 22.6 °F 88% 30.31 in 10.0 mi WSW 8.1 mph - N/A   Clear
8:35 AM 27.7 °F 18.2 °F 23.7 °F 85% 30.31 in 10.0 mi West 10.4 mph - N/A   Clear
8:55 AM 29.1 °F 20.0 °F 24.8 °F 84% 30.31 in 10.0 mi West 10.4 mph - N/A   Clear
9:15 AM 32.0 °F 23.6 °F 26.6 °F 80% 30.31 in 10.0 mi WSW 10.4 mph - N/A   Clear
9:35 AM 34.3 °F 25.9 °F 28.0 °F 78% 30.31 in 10.0 mi West 11.5 mph - N/A   Clear
9:55 AM 37.4 °F 29.8 °F 28.9 °F 71% 30.31 in 10.0 mi West 11.5 mph - N/A   Clear
10:15 AM 41.0 °F 34.3 °F 29.7 °F 64% 30.31 in 10.0 mi West 11.5 mph - N/A   Clear
10:35 AM 44.6 °F 38.8 °F 30.0 °F 57% 30.31 in 10.0 mi WSW 11.5 mph - N/A   Clear
10:55 AM 47.5 °F - 30.0 °F 51% 30.31 in 10.0 mi West 11.5 mph - N/A   Clear
11:15 AM 49.5 °F - 28.6 °F 45% 30.30 in 10.0 mi West 12.7 mph - N/A   Clear
11:35 AM 50.5 °F - 28.2 °F 42% 30.30 in 10.0 mi WSW 12.7 mph - N/A   Clear
12:00 PM 52.3 °F - 26.8 °F 37% 30.29 in 10.0 mi WSW 13.8 mph 19.6 mph N/A   Clear
12:15 PM 52.9 °F - 25.3 °F 34% 30.29 in 10.0 mi WSW 11.5 mph 18.4 mph N/A   Clear
12:35 PM 54.7 °F - 25.7 °F 33% 30.28 in 10.0 mi WSW 16.1 mph - N/A   Clear
12:55 PM 55.6 °F - 25.0 °F 31% 30.27 in 10.0 mi West 13.8 mph - N/A   Clear
1:15 PM 55.9 °F - 23.2 °F 28% 30.26 in 10.0 mi West 12.7 mph 20.7 mph N/A   Clear
1:35 PM 57.2 °F - 23.2 °F 27% 30.25 in 10.0 mi WSW 12.7 mph 17.3 mph N/A   Clear
1:55 PM 59.0 °F - 22.5 °F 24% 30.23 in 10.0 mi WSW 11.5 mph 19.6 mph N/A   Clear
2:15 PM 59.9 °F - 19.2 °F 21% 30.21 in 10.0 mi WSW 13.8 mph 19.6 mph N/A   Clear
2:35 PM 61.2 °F - 18.3 °F 19% 30.20 in 10.0 mi SW 11.5 mph 19.6 mph N/A   Clear
2:55 PM 62.4 °F - 16.9 °F 17% 30.19 in 10.0 mi SW 13.8 mph 21.9 mph N/A   Clear
3:15 PM 62.4 °F - 16.3 °F 17% 30.18 in 10.0 mi WSW 16.1 mph 23.0 mph N/A   Clear
3:35 PM 63.0 °F - 14.4 °F 15% 30.16 in 10.0 mi WSW 15.0 mph 18.4 mph N/A   Clear
3:55 PM 64.0 °F - 13.6 °F 14% 30.15 in 10.0 mi WSW 12.7 mph 23.0 mph N/A   Clear
4:15 PM 63.7 °F - 10.8 °F 13% 30.14 in 10.0 mi WSW 13.8 mph - N/A   Clear
4:40 PM 64.9 °F - 12.2 °F 13% 30.14 in 10.0 mi SW 15.0 mph 19.6 mph N/A   Clear
4:55 PM 64.2 °F - 11.5 °F 13% 30.13 in 10.0 mi WSW 11.5 mph 19.6 mph N/A   Clear
5:15 PM 64.6 °F - 11.1 °F 12% 30.13 in 10.0 mi SW 13.8 mph 19.6 mph N/A   Clear
5:35 PM 64.6 °F - 11.1 °F 12% 30.12 in 10.0 mi SW 11.5 mph 20.7 mph N/A   Clear
5:55 PM 64.9 °F - 10.2 °F 12% 30.11 in 10.0 mi SW 15.0 mph - N/A   Clear
6:15 PM 64.6 °F - 10.0 °F 12% 30.11 in 10.0 mi SW 11.5 mph 17.3 mph N/A   Clear
6:35 PM 63.7 °F - 10.0 °F 12% 30.11 in 10.0 mi SW 13.8 mph - N/A   Clear
6:55 PM 63.0 °F - 9.5 °F 12% 30.11 in 10.0 mi SW 13.8 mph - N/A   Clear
7:15 PM 61.2 °F - 7.9 °F 12% 30.11 in 10.0 mi SW 10.4 mph - N/A   Clear
7:35 PM 58.1 °F - 7.7 °F 13% 30.11 in 10.0 mi SSW 6.9 mph - N/A   Clear
7:55 PM 52.7 °F - 6.8 °F 16% 30.11 in 10.0 mi Calm Calm - N/A   Clear
8:15 PM 48.9 °F - 7.5 °F 19% 30.11 in 10.0 mi Calm Calm - N/A   Clear
8:35 PM 44.6 °F 38.8 °F 7.5 °F 22% 30.11 in 10.0 mi SW 11.5 mph - N/A   Clear
8:55 PM 42.1 °F 35.7 °F 8.2 °F 25% 30.10 in 10.0 mi SW 11.5 mph - N/A   Clear
9:15 PM 40.1 °F 33.2 °F 8.4 °F 27% 30.11 in 10.0 mi WSW 11.5 mph - N/A   Clear
9:35 PM 41.2 °F 39.2 °F 8.4 °F 26% 30.11 in 10.0 mi SW 3.5 mph - N/A   Clear
9:55 PM 38.3 °F 30.9 °F 8.6 °F 29% 30.11 in 10.0 mi SW 11.5 mph - N/A   Clear
10:15 PM 38.3 °F 30.5 °F 8.8 °F 30% 30.10 in 10.0 mi SW 12.7 mph - N/A   Clear
10:35 PM 39.4 °F 32.3 °F 8.4 °F 28% 30.10 in 10.0 mi SW 11.5 mph - N/A   Clear
10:55 PM 39.7 °F 32.7 °F 8.6 °F 28% 30.11 in 10.0 mi SW 11.5 mph - N/A   Clear
11:15 PM 39.0 °F 31.8 °F 9.3 °F 29% 30.10 in 10.0 mi SW 11.5 mph - N/A   Clear
11:35 PM 37.9 °F 30.0 °F 9.5 °F 31% 30.10 in 10.0 mi SW 12.7 mph - N/A   Clear
11:55 PM 40.8 °F 33.7 °F 9.3 °F 27% 30.09 in 10.0 mi SW 12.7 mph - N/A   Clear
12:15 AM 40.6 °F 33.4 °F 9.3 °F 28% 30.08 in 10.0 mi SW 12.7 mph - N/A   Clear
12:35 AM 41.9 °F 34.6 °F 9.7 °F 27% 30.07 in 10.0 mi WSW 13.8 mph - N/A   Clear
12:55 AM 40.6 °F 32.3 °F 10.2 °F 29% 30.07 in 10.0 mi SW 16.1 mph - N/A   Clear